McConnell AFB, KS

5:01 AM CST on December 08, 2019 (GMT -0600)
McConnell Air Force Base

Weather History for KIAB - July, 2019

Change the Weather History Date:

Wednesday, July 17, 2019

  Actual Average Record
Temperature  
Mean Temperature 88 °F -  
Max Temperature 100 °F 89 °F 107 °F (2006)
Min Temperature 77 °F 68 °F 60 °F (2014)
Cooling Degree Days 24    
Growing Degree Days 38 (Base 50)    
Moisture  
Dew Point 69 °F    
Average Humidity 57    
Maximum Humidity 81    
Minimum Humidity 32    
Precipitation  
Precipitation 0.00 in - - ()
Sea Level Pressure  
Sea Level Pressure 29.84 in    
Wind  
Wind Speed 13 mph (SE)    
Max Wind Speed 23 mph    
Max Gust Speed 31 mph    
Visibility 10 miles    
Events      
Averages and records for this station are not official NWS values.
T = Trace of Precipitation, MM = Missing Value Source: NWS Daily Summary

Daily Weather History Graph

Daily Weather History Graph

Search for Another Location

Airport or City:

Astronomy

Jul. 17, 2019 Rise Set
Actual Time 6:20 AM CDT 8:49 PM CDT
Civil Twilight 5:50 AM CDT 9:19 PM CDT
Nautical Twilight 5:13 AM CDT 9:56 PM CDT
Astronomical Twilight 4:31 AM CDT 10:37 PM CDT
Moon 9:39 PM CDT (7/17) 6:54 AM CDT (7/17)
Length of Visible Light 15h 28m
Length of Day
14h 28m
Full, 99% of the Moon is Illuminated
Jul 17
Full
Jul 24
Last Quarter
Jul 31
New
Aug 7
First Quarter
Aug 15
Full

Hourly Weather History & Observations

Time (CDT) Temp. Heat Index Dew Point Humidity Pressure Visibility Wind Dir Wind Speed Gust Speed Precip Events Conditions
12:56 AM 79.7 °F - 69.8 °F 72% 29.87 in 10.0 mi ESE 9.2 mph - N/A   Overcast
1:56 AM 79.0 °F - 71.1 °F 77% 29.86 in 10.0 mi SE 8.1 mph - N/A   Clear
2:56 AM 78.8 °F - 71.6 °F 78% 29.85 in 10.0 mi SE 8.1 mph - N/A   Clear
3:56 AM 78.3 °F - 72.0 °F 81% 29.84 in 10.0 mi ESE 9.2 mph - N/A   Clear
4:56 AM 78.1 °F - 71.4 °F 80% 29.86 in 10.0 mi SE 9.2 mph - N/A   Clear
5:56 AM 77.5 °F - 70.5 °F 79% 29.87 in 10.0 mi SE 8.1 mph - N/A   Clear
6:56 AM 78.1 °F - 70.2 °F 77% 29.87 in 10.0 mi SE 10.4 mph - N/A   Clear
7:56 AM 80.4 °F 83.8 °F 70.2 °F 71% 29.86 in 10.0 mi SE 11.5 mph - N/A   Clear
8:56 AM 81.7 °F 85.2 °F 69.6 °F 67% 29.88 in 10.0 mi SSE 15.0 mph - N/A   Clear
9:56 AM 86.4 °F 91.4 °F 70.3 °F 59% 29.88 in 10.0 mi SSE 16.1 mph - N/A   Clear
10:56 AM 89.6 °F 95.2 °F 70.2 °F 53% 29.87 in 10.0 mi SSE 17.3 mph - N/A   Clear
11:56 AM 92.3 °F 98.6 °F 70.9 °F 49% 29.87 in 10.0 mi SSE 19.6 mph - N/A   Clear
12:56 PM 95.9 °F 101.9 °F 69.6 °F 42% 29.86 in 10.0 mi SSE 19.6 mph 28.8 mph N/A   Clear
1:56 PM 98.1 °F 105.0 °F 70.2 °F 40% 29.84 in 10.0 mi South 20.7 mph - N/A   Partly Cloudy
2:56 PM 99.5 °F 105.2 °F 68.5 °F 36% 29.83 in 10.0 mi South 20.7 mph - N/A   Partly Cloudy
3:56 PM 100.0 °F 103.6 °F 65.7 °F 32% 29.82 in 10.0 mi SSE 23.0 mph 29.9 mph N/A   Clear
4:56 PM 99.5 °F 103.2 °F 66.0 °F 33% 29.81 in 10.0 mi SSE 19.6 mph - N/A   Clear
5:56 PM 98.4 °F 102.5 °F 66.0 °F 35% 29.80 in 10.0 mi SSE 21.9 mph 31.1 mph N/A   Clear
6:56 PM 96.4 °F 99.4 °F 65.8 °F 36% 29.79 in 10.0 mi SSE 20.7 mph 31.1 mph N/A   Clear
7:56 PM 93.6 °F 97.4 °F 67.6 °F 42% 29.78 in 10.0 mi SSE 16.1 mph - N/A   Clear
8:56 PM 90.3 °F 94.7 °F 69.1 °F 49% 29.82 in 10.0 mi SE 15.0 mph - N/A   Clear
9:56 PM 88.2 °F 92.9 °F 69.8 °F 54% 29.85 in 10.0 mi SE 18.4 mph - N/A   Clear
10:56 PM 86.4 °F 91.1 °F 69.8 °F 58% 29.82 in 10.0 mi SE 20.7 mph 26.5 mph N/A   Clear
11:56 PM 84.7 °F 89.1 °F 70.2 °F 61% 29.85 in 10.0 mi SSE 17.3 mph 26.5 mph N/A   Clear